Hauptseite
METAR-TAF:

METAR-TAF

Flughäfen :

Bütgenbach, Belgien

Elsenborn

Breite: 50-28N, Länge: 006-11E, Höhe: 564 m

Beobachtung

Neuester Wetterbericht von vor 30 Minuten, um 05:25 UTC
Wind 9 kt aus West/Südwest
Temperatur 5°C
Luftfeuchtigkeit 87%
Luftdruck 1015 hPa
Sichtweite: 8000 m
Leichtregen

METAR: EBLB 260525Z AUTO 25009KT 8000 -RA BKN012/// 05/03 Q1015 GRN

Zeit: 07:55 (05:55 UTC)


TAF: fehlend

Wetterbeobachtungen und Prognosen von mehr als 4000 Flughäfen (METAR und TAF Bericht).

Die verfügbaren Stationen werden durch gelbe und rote Markierungen auf der Karte dargestellt.

Führen Sie die Maus auf sie, um den Namen der Station zu sehen.

Darauf klicken, um die Beobachtung von Wetterbeobachtungen und Prognosen zu sehen.

Um die Karte zu ändern : klicken Sie auf den grünen Tasten mit einem schwarzen Kreuz Zum Vergrößern, auf den grünen Button mit einem Gedankenstrich zu verkleinern, oder auf die grünen Pfeile für benachbarte Karten.


METAR-TAF: